[[{"header":{"parameterUnit":"m.s-1","parameterCategory":1,"la1":30.2991,"la2":30.254,"lo1":-89.0895,"lo2":-89.0444,"dy":0.0017,"dx":0.0017,"nx":28,"ny":28,"refTime":"2024-07-21T09:00:00:Z","depth":0,"parameterNumber":2,"parameterNumberName":"U-component_of_WINDS"},"data":[0,0,0,0,0,0,0,0,0,0,0,0,0,0,0,0,0,0,0,0,0,0,0,0,0,0,0,0,0,0,0,0,0,0,0,0,0,0,0,0,0,0,0,0,0,0,0,0,0,0,0,0,0,0,0,0,0,0,1.1181,1.1181,0,1.1191,1.1191,1.1191,1.1194,1.1193,1.1193,1.1193,1.1206,1.1206,1.1207,0,0,0,0,0,0,0,0,0,0,0,0,0,1.1165,1.1166,1.1181,1.1181,1.1181,1.1191,1.1191,1.1191,1.1194,1.1193,1.1193,1.1193,1.1206,1.1206,1.1207,0,0,0,0,0,0,0,0,0,0,0,0,0,1.1173,1.1166,1.1181,1.1183,1.1184,1.1191,1.1191,1.1191,1.1194,1.1193,1.1193,1.1193,1.1206,1.1206,1.1207,1.1213,0,0,1.1209,1.1209,0,0,0,0,0,0,0,0,1.1173,1.1174,1.1183,1.1183,1.1184,1.1191,1.119,1.1199,1.1194,1.119,1.1193,1.1193,1.1201,1.1202,1.1204,1.1214,1.1214,1.1209,1.1209,1.121,1.121,0,0,0,0,0,0,0,1.1172,1.1174,1.1185,1.1183,1.1184,1.1185,1.1186,1.1192,1.1196,1.119,1.119,1.1191,1.1201,1.1204,1.1205,1.1214,1.1209,1.1209,1.121,1.121,1.1227,1.1228,0,0,0,0,0,0,1.1171,1.1173,1.1185,1.1185,1.1178,1.1185,1.1186,1.1189,1.1196,1.1197,1.1192,1.1191,1.1203,1.1204,1.1205,1.1212,1.121,1.121,1.121,1.1227,1.1227,1.1228,0,0,0,0,0,0,1.1171,1.1172,1.1184,1.1179,1.1181,1.1185,1.1188,1.1189,1.1191,1.1197,1.1198,1.1193,1.1203,1.1204,1.121,1.1212,1.121,1.1211,1.1227,1.1227,1.1228,1.1225,0,0,0,0,0,0,1.117,1.1172,1.1174,1.1179,1.1181,1.1189,1.1188,1.1189,1.1192,1.1192,1.1199,1.12,1.1203,1.121,1.1211,1.1213,1.1211,1.1227,1.1227,1.1227,1.1225,1.1225,1.1226,0,0,0,0,0,1.117,1.1174,1.1174,1.1176,1.1184,1.1189,1.119,1.1193,1.1192,1.1194,1.1198,1.12,1.1212,1.121,1.1212,1.1214,1.1227,1.1227,1.1227,1.1225,1.1225,1.1226,0,0,0,0,0,0,1.117,1.1175,1.1175,1.1181,1.1184,1.1189,1.1193,1.1193,1.1198,1.1198,1.1202,1.1203,1.1209,1.1212,1.121,1.122,1.1219,1.122,1.1217,1.1217,1.1217,1.1217,1.1212,0,0,0,0,0,1.1171,1.1174,1.1178,1.1183,1.1185,1.1188,1.1191,1.1192,1.1196,1.1198,1.1202,1.1207,1.1211,1.1215,1.122,1.1226,1.1227,1.1228,1.1228,1.1228,1.1229,1.1231,1.1231,1.1228,1.1228,1.1228,0,0,1.1173,1.1176,1.1178,1.1183,1.1186,1.119,1.119,1.1194,1.1197,1.1199,1.1205,1.1208,1.1213,1.1219,1.1222,1.1222,1.123,1.1228,1.1228,1.1229,1.1231,1.1232,1.1232,1.1228,1.1228,1.1228,0,0,1.1178,1.118,1.1184,1.1186,1.119,1.1192,1.1193,1.1197,1.1199,1.1204,1.1206,1.121,1.1218,1.1221,1.1224,1.1228,1.123,1.123,1.123,1.1233,1.1233,1.1233,1.1234,1.1234,1.123,1.123,1.123,0,1.1179,1.1184,1.1186,1.1189,1.1192,1.1193,1.1196,1.1199,1.1205,1.1206,1.1206,1.1215,1.1219,1.1225,1.1226,1.1228,1.1229,1.1229,1.1233,1.1233,1.1233,1.1234,1.1234,1.123,1.123,1.123,1.123,0,1.1186,1.1189,1.1192,1.1196,1.1198,1.1202,1.1204,1.1207,1.1208,1.121,1.1214,1.1219,1.1224,1.1225,1.1227,1.1231,1.1231,1.1232,1.1232,1.1233,1.1234,1.1234,1.123,1.123,1.123,1.123,0,0,1.1193,1.1196,1.1197,1.1198,1.1201,1.1204,1.1208,1.1211,1.1213,1.1217,1.1219,1.1225,1.1225,1.1228,1.123,1.1233,1.1234,1.1233,1.1233,1.1232,1.1238,1.1237,1.1238,1.1235,1.1235,1.1235,1.1238,0,1.1197,1.1203,1.1203,1.1208,1.1211,1.1211,1.1214,1.1217,1.1218,1.1221,1.1223,1.1227,1.1227,1.1229,1.1231,1.1234,1.1236,1.1234,1.1238,1.1238,1.1236,1.1238,1.1238,1.124,1.1238,1.1238,1.1238,0,1.1204,1.1206,1.1211,1.1212,1.1213,1.1216,1.1219,1.1221,1.1224,1.1225,1.1227,1.1229,1.1232,1.1232,1.1236,1.1235,1.1237,1.1238,1.1238,1.1239,1.1238,1.1239,1.1241,1.1241,1.1239,1.1239,1.1239,0,1.1207,1.1211,1.1214,1.1215,1.1218,1.1219,1.122,1.1223,1.1224,1.1227,1.1228,1.1232,1.1233,1.1236,1.1238,1.1238,1.1242,1.1242,1.1243,1.1243,1.1244,1.1244,1.1247,1.1246,1.1246,1.1246,1.1246,0,1.1212,1.1215,1.1215,1.1217,1.122,1.1221,1.1224,1.1225,1.1227,1.1229,1.123,1.1232,1.1235,1.1237,1.1239,1.1242,1.1243,1.1244,1.1244,1.1244,1.1243,1.1245,1.1245,1.1246,1.1246,1.1246,1.1246,0,1.1216,1.1217,1.122,1.1221,1.1222,1.1224,1.1225,1.1227,1.1228,1.123,1.1231,1.1233,1.1236,1.1238,1.1242,1.1243,1.1246,1.1247,1.1245,1.1245,1.1246,1.1245,1.1249,1.1249,1.1249,1.1249,1.1249,0,1.122,1.1221,1.1222,1.1223,1.1224,1.1226,1.1227,1.1228,1.1229,1.1231,1.1232,1.1235,1.1237,1.1241,1.1244,1.1246,1.1247,1.1248,1.1247,1.1246,1.1246,1.1246,1.1246,1.1248,1.1248,1.1248,1.1248,0,1.1225,1.1224,1.1226,1.1227,1.1228,1.1229,1.123,1.1231,1.1232,1.1233,1.1235,1.1237,1.124,1.1242,1.1245,1.1246,1.1247,1.1248,1.1248,1.1247,1.1246,1.1246,1.1244,1.1248,1.1248,1.1248,1.1248,1.1248,1.1228,1.1229,1.123,1.1231,1.1231,1.1232,1.1233,1.1234,1.1235,1.1237,1.1237,1.1239,1.1241,1.1244,1.1246,1.1248,1.1248,1.1248,1.1248,1.1248,1.1248,1.1245,1.1248,1.1248,1.1248,1.1248,1.1248,0,1.1233,1.1233,1.1234,1.1234,1.1235,1.1234,1.1235,1.1236,1.1237,1.1238,1.124,1.1242,1.1243,1.1245,1.1247,1.1248,1.1248,1.1249,1.1248,1.1249,1.1248,1.1247,1.1248,1.1248,1.1248,1.1248,1.1248,1.1248,1.1235,1.1237,1.1236,1.1238,1.1238,1.1239,1.1239,1.124,1.124,1.1242,1.1243,1.1243,1.1245,1.1246,1.1248,1.1248,1.1249,1.1249,1.1249,1.1249,1.1249,1.1249,1.1248,1.1249,1.1249,1.125,1.125,1.125]},{"header":{"parameterUnit":"m.s-1","parameterCategory":1,"la1":30.2991,"la2":30.254,"lo1":-89.0895,"lo2":-89.0444,"dy":0.0017,"dx":0.0017,"nx":28,"ny":28,"refTime":"2024-07-21T09:00:00:Z","depth":0,"parameterNumber":3,"parameterNumberName":"V-component_of_WINDS"},"data":[0,0,0,0,0,0,0,0,0,0,0,0,0,0,0,0,0,0,0,0,0,0,0,0,0,0,0,0,0,0,0,0,0,0,0,0,0,0,0,0,0,0,0,0,0,0,0,0,0,0,0,0,0,0,0,0,0,0,2.6354,2.6356,0,2.6507,2.6508,2.651,2.6549,2.6548,2.6547,2.6546,2.6708,2.6713,2.6718,0,0,0,0,0,0,0,0,0,0,0,0,0,2.6105,2.6109,2.6354,2.6356,2.6358,2.6506,2.6509,2.6511,2.6549,2.6548,2.6547,2.6546,2.6706,2.6712,2.6718,0,0,0,0,0,0,0,0,0,0,0,0,0,2.6231,2.611,2.6354,2.6395,2.64,2.6506,2.6509,2.6511,2.655,2.6548,2.6547,2.6545,2.6704,2.6712,2.6719,2.6796,0,0,2.6743,2.6747,0,0,0,0,0,0,0,0,2.6224,2.624,2.6387,2.6392,2.6398,2.6507,2.648,2.6607,2.655,2.6493,2.6546,2.6545,2.6643,2.6655,2.6687,2.6804,2.6811,2.6744,2.6749,2.6752,2.6754,0,0,0,0,0,0,0,2.6215,2.6234,2.6415,2.6389,2.6396,2.6409,2.6425,2.6504,2.6574,2.6498,2.6501,2.6518,2.6645,2.668,2.6691,2.6813,2.6744,2.6751,2.6755,2.6758,2.7006,2.7008,0,0,0,0,0,0,2.6198,2.6226,2.641,2.6419,2.6305,2.6414,2.6433,2.6474,2.6573,2.6587,2.6519,2.652,2.6667,2.6682,2.6697,2.6796,2.6752,2.6759,2.6764,2.7004,2.7007,2.7009,0,0,0,0,0,0,2.6192,2.6214,2.6404,2.6324,2.6349,2.642,2.6466,2.6478,2.6512,2.659,2.6603,2.6541,2.6667,2.6686,2.6772,2.6802,2.6763,2.677,2.7002,2.7005,2.7008,2.6994,0,0,0,0,0,0,2.6185,2.6212,2.6239,2.6324,2.6353,2.6473,2.6468,2.6482,2.6525,2.6526,2.6613,2.6626,2.6667,2.676,2.678,2.6813,2.6776,2.7,2.7003,2.7007,2.6992,2.6996,2.6999,0,0,0,0,0,2.6176,2.6229,2.624,2.6262,2.6388,2.6475,2.6492,2.6535,2.6527,2.6557,2.6608,2.6624,2.6796,2.6769,2.6791,2.6827,2.6998,2.7002,2.7006,2.699,2.6995,2.6999,0,0,0,0,0,0,2.6147,2.6241,2.6254,2.6336,2.6397,2.6481,2.652,2.6539,2.6604,2.6603,2.6657,2.6677,2.676,2.6802,2.677,2.6909,2.6898,2.6907,2.6877,2.6883,2.6886,2.6874,2.6782,0,0,0,0,0,2.615,2.621,2.629,2.6355,2.6385,2.6447,2.6486,2.6515,2.6581,2.6608,2.6665,2.673,2.68,2.6844,2.6912,2.6999,2.702,2.7035,2.7039,2.7041,2.7048,2.7101,2.7109,2.7023,2.7023,2.7023,0,0,2.6157,2.6216,2.6251,2.6351,2.6401,2.6465,2.6468,2.6535,2.6584,2.6618,2.6703,2.6748,2.6824,2.6912,2.6954,2.695,2.7077,2.7047,2.7048,2.7054,2.7106,2.7114,2.7122,2.7026,2.7025,2.7025,0,0,2.6202,2.6252,2.6313,2.6364,2.6441,2.6483,2.6498,2.658,2.6611,2.6696,2.6725,2.6785,2.6903,2.6957,2.7,2.7072,2.709,2.7093,2.7112,2.7163,2.7169,2.7176,2.7203,2.7212,2.71,2.71,2.71,0,2.6201,2.6296,2.6342,2.6408,2.6453,2.6487,2.6551,2.66,2.6695,2.6727,2.6721,2.6872,2.6926,2.7029,2.7046,2.708,2.7101,2.7082,2.7164,2.7171,2.7178,2.7205,2.7215,2.71,2.71,2.71,2.71,0,2.6293,2.6359,2.6399,2.649,2.654,2.6604,2.6663,2.6709,2.6735,2.6778,2.6868,2.6935,2.7018,2.7045,2.7071,2.7153,2.7149,2.7153,2.7143,2.7185,2.7211,2.7222,2.7099,2.71,2.71,2.71,0,0,2.632,2.6438,2.6452,2.6496,2.6585,2.6639,2.6707,2.6788,2.6827,2.6894,2.6954,2.7055,2.7061,2.711,2.7144,2.7189,2.7244,2.7189,2.7192,2.7197,2.7341,2.7337,2.7348,2.7258,2.726,2.7261,2.7335,0,2.6377,2.6497,2.6543,2.6643,2.6706,2.6743,2.6804,2.6867,2.6911,2.6974,2.7024,2.7095,2.7096,2.7127,2.7173,2.7227,2.7274,2.7223,2.7317,2.7319,2.7295,2.7361,2.7356,2.7422,2.7346,2.7347,2.7349,0,2.6457,2.6525,2.663,2.6716,2.6744,2.6797,2.6877,2.6936,2.7011,2.704,2.7097,2.7129,2.7206,2.7192,2.73,2.7265,2.7307,2.734,2.7344,2.7353,2.7335,2.7373,2.7444,2.7453,2.7365,2.7364,2.7362,0,2.6468,2.6585,2.6665,2.6701,2.6802,2.6839,2.6883,2.6956,2.7004,2.7075,2.7107,2.7187,2.723,2.7293,2.7347,2.7331,2.7452,2.7441,2.748,2.7479,2.7502,2.75,2.758,2.7529,2.7529,2.7529,2.7529,0,2.6526,2.659,2.6671,2.672,2.6794,2.6848,2.6921,2.6969,2.7034,2.7095,2.7133,2.719,2.7258,2.7325,2.7368,2.7453,2.7473,2.75,2.7511,2.7496,2.7493,2.7524,2.7521,2.7532,2.7531,2.7531,2.753,0,2.6549,2.6605,2.6695,2.6785,2.6809,2.686,2.6938,2.6989,2.7037,2.7114,2.7135,2.721,2.7292,2.7352,2.7457,2.7487,2.7577,2.7588,2.7551,2.7557,2.7592,2.7588,2.7695,2.7713,2.765,2.765,2.7651,0,2.6581,2.6631,2.6727,2.677,2.6814,2.6883,2.6932,2.699,2.7039,2.7131,2.7172,2.7256,2.7325,2.7454,2.752,2.7602,2.7615,2.7647,2.7628,2.7613,2.7617,2.7613,2.7619,2.7649,2.765,2.765,2.765,0,2.6634,2.666,2.6728,2.6807,2.6864,2.693,2.6996,2.703,2.71,2.7155,2.7238,2.7292,2.7401,2.7485,2.7574,2.7624,2.765,2.7657,2.767,2.7655,2.7632,2.7646,2.7559,2.7653,2.7653,2.7653,2.7653,2.7652,2.6663,2.671,2.6786,2.6861,2.6918,2.698,2.7033,2.7088,2.7157,2.7249,2.7281,2.7367,2.7446,2.7568,2.7619,2.769,2.769,2.7709,2.7714,2.7717,2.7717,2.7622,2.7707,2.7707,2.7707,2.7707,2.7707,0,2.6718,2.6769,2.6838,2.693,2.6991,2.701,2.7086,2.7136,2.7211,2.7282,2.735,2.7448,2.7531,2.7605,2.7692,2.7735,2.7749,2.7755,2.7753,2.7764,2.7711,2.7691,2.7742,2.7742,2.7742,2.7742,2.7742,2.7742,2.6753,2.6835,2.6872,2.6984,2.7036,2.712,2.7162,2.7221,2.7278,2.7385,2.7454,2.7501,2.7574,2.7668,2.7746,2.7766,2.7796,2.78,2.7823,2.7772,2.7767,2.7763,2.7744,2.7806,2.7806,2.787,2.787,2.7871]}]]